Regional Weather Roundup
Issued by NWS Cleveland, OH

Home | Current Version | Previous Version | Text Only | Print | Product List | Glossary Off
Versions: 1 2 3 4 5 6 7 8 9 10 11 12 13 14 15 16 17 18 19 20 21 22 23 24 25 26 27 28 29 30 31 32 33 34 35 36 37 38 39 40 41 42 43 44 45 46 47 48 49 50

744
ASUS41 KCLE 252002
RWRCLE
OHIO REGIONAL WEATHER ROUNDUP
NATIONAL WEATHER SERVICE CLEVELAND, OH
400 PM EDT TUE JUL 25 2017

NOTE: "FAIR" INDICATES FEW OR NO CLOUDS BELOW 12,000 FEET WITH NO
SIGNIFICANT WEATHER AND/OR OBSTRUCTIONS TO VISIBILITY.

OHZ001>008-015>018-024>027-034-035-043-044-252100-
   NORTHWEST OHIO

CITY           SKY/WX    TMP DP  RH WIND       PRES   REMARKS
DEFIANCE       SUNNY    N/A N/A N/A E7        30.22F
FINDLAY        MOSUNNY   78  58  49 N8        30.22R
TOLEDO EXPRESS SUNNY     77  57  50 E8        30.22R
TOLEDO EXEC    MOSUNNY   77  58  51 VRB6      30.24R
LIMA           SUNNY     76  60  57 E5        30.23R
$$

OHZ009>014-019>023-028>033-038-089-252100-
   NORTHEAST OHIO

CITY           SKY/WX    TMP DP  RH WIND       PRES   REMARKS
CLE-HOPKINS    PTSUNNY   76  61  59 N9        30.23S
CLE-LAKEFRONT  SUNNY     73  59  61 N12       30.21S
CUY CO. ARPT   MOSUNNY   73  61  64 N12       30.22S
LORAIN-ELYRIA  MOSUNNY   72  56  57 NE7       30.23R
ASHTABULA      MOSUNNY   71  57  61 N3        30.23S
AKRON-CANTON   MOSUNNY   77  58  51 VRB7      30.21S
WOOSTER        PTSUNNY   74  59  59 CALM      30.22S
MANSFIELD      PTSUNNY   73  59  61 E7        30.23R
YOUNGSTOWN     PTSUNNY   74  58  57 NW9       30.21S
$$

OHZ042-051>053-060>062-070>072-077>081-252100-
  SOUTHWEST OHIO

CITY           SKY/WX    TMP DP  RH WIND       PRES   REMARKS
CINC-COVINGTON MOSUNNY   81  59  47 MISG      30.17S
CINC-LUNKEN    SUNNY     81  63  54 NE10      30.18R
HAMILTON       SUNNY     80  63  55 E9        30.19S
DAYTON         MOSUNNY   76  58  53 NE12      30.22R
WRIGHT-PAT AFB SUNNY     76  59  55 NE8       30.20S
DAYTON GENERAL MOSUNNY   77  61  57 MISG      30.20R
WILMINGTON     MOSUNNY   74  63  68 E6        30.20R
$$

OHZ036-037-039>041-045>050-054>059-063>069-073>076-082>088-252100-
  CENTRAL AND SOUTHEAST OHIO

CITY           SKY/WX    TMP DP  RH WIND       PRES   REMARKS
COLUMBUS       PTSUNNY   76  61  59 MISG      30.20S
OSU AIRPORT    PTSUNNY   74  61  63 NE7       30.20S
BOLTON FIELD   SUNNY     75  61  60 NE5       30.21S
RICKENBACK AFB MOSUNNY   75  60  59 E7        30.20S
NEWARK         CLOUDY    74  58  57 NE5       30.20S
MARION         CLOUDY    75  60  59 NE12      30.23R
LANCASTER      CLOUDY    73  60  63 E5        30.21S
ZANESVILLE     CLOUDY    73  58  59 VRB5      30.21F
NEW PHILLY     NOT AVBL
$$




USA.gov is the U.S. government's official web portal to all federal, state and local government web resources and services.